DELTA 1 DEB, 4841

Orbit data source: Space-Track

DELTA 1 DEB, 4841 is space debris originally from a launch on Thu, 04 Jul 1968 UTC launched from the Air Force Western Test Range (AFWTR). Debris objects in space refer to the collection of defunct objects orbiting the Earth. Examples of debris include non-operational satellites, rocket bodies, and fragments generated from explosions, collisions, or faulty payload assembly.

Loading next visibility...
Identifier
4841, 1968-055D
Orbit
Active
Country
Flag of USUS
Related business
Manufacturer
Unknown
Mission
Spacecraft
Bus & Motor
Unknown
Mass
Unknown
Launch date (UTC)
1968-07-04 (57 years ago)
Launch vehicle
Unknown
Launch site
Air Force Western Test Range (AFWTR)
Object type
Payload
Rocket body
Debris
Shape & HBR
Unknown shape, 0.1 m
Radar Cross Section
Small (<0.1 m²)

Expand to show TLE details & history
Last TLE update: 21 hours ago

TLE from 21 hours ago
0 DELTA 1 DEB
1 04841U 68055D   25310.01773212  .00000040  00000-0  11969-3 0  9998
2 04841 120.7478 287.6302 2700443 120.2581 338.1885  9.29214093114691
Epoch: 2025-11-06T00:25Z
TLE epoch observation values (Epoch: 2025-11-06T00:25:32.055Z)
Latitude
58.48146°
Longitude
161.011°
Altitude
938.64 km
Speed
8.213 km/s
True Right ascension
14h 11m 30s
True Declination
58° 19' 54"
Sunlit
Object was in daylight at epoch
Visualization orbit readout
Latitude
Unknown
Longitude
Unknown
Altitude
Unknown
Speed
Unknown
Apparent Right ascension
Unknown
Apparent Declination
Unknown
Sunlit
N/A
Visualization observer readout
Local Sidereal Time
17:26:44
Azimuth
Unknown
Elevation
Unknown
Doppler factor
Unknown
Orbital elements
Apogee altitude
5,759.062 km
Perigee altitude
597.696 km
Semi-major axis
9,556.516 km
Eccentricity
0.27004
Inclination
120.7478°
RAAN
287.6302°
Arg. of periapsis
120.2581°
True anomaly
321.81257°
Mean anomaly
338.1885°
Eccentric anomaly
330.5909°
Mean motion
2.32324 °/min
Orbital period
154.96 mins
BSTAR
0.00011969
Loading maneuver chart data...
Computing Atmospheric mass density...
Loading historical data...
Loading historical data...
Loading historical data...
Loading historical data...
Loading historical data...
Loading historical data...
Loading historical data...

Documentation

Showing up to 5 results
|